EW5053 Weather Reports


Display with metric or nautical units.
time (UTC)temp
F
wind
direction
speed
MPH
gust
MPH
rain 1hr
in
rain 24hr
in
rain mn
in
humidity
%
barometer
mb
20260508190504 69 223 7.0 17.0 0.00 0.00 0.00 44 1011.6
20260508190004 70 210 11.0 17.0 0.00 0.00 0.00 44 1011.6
20260508185504 70 220 9.0 13.0 0.00 0.00 0.00 45 1011.7
20260508185004 70 227 9.0 13.0 0.00 0.00 0.00 45 1011.8
20260508184504 69 234 7.0 13.0 0.00 0.00 0.00 45 1011.9
20260508184005 69 236 6.0 17.0 0.00 0.00 0.00 44 1012.0
20260508183003 69 245 10.0 15.0 0.00 0.00 0.00 44 1012.2
20260508182503 69 259 11.0 15.0 0.00 0.00 0.00 45 1012.0
20260508182004 69 243 7.0 15.0 0.00 0.00 0.00 45 1012.2
20260508181504 69 230 11.0 16.0 0.00 0.00 0.00 47 1012.4
20260508181005 69 219 9.0 16.0 0.00 0.00 0.00 45 1012.5
20260508180504 69 218 12.0 19.0 0.00 0.00 0.00 44 1012.4
20260508180004 69 212 12.0 19.0 0.00 0.00 0.00 44 1012.5
20260508175504 69 214 5.0 14.0 0.00 0.00 0.00 45 1012.7
20260508175004 68 237 6.0 13.0 0.00 0.00 0.00 44 1012.8
20260508174503 68 240 10.0 15.0 0.00 0.00 0.00 45 1012.7
20260508173504 68 260 8.0 17.0 0.00 0.00 0.00 45 1013.0
20260508173004 68 254 13.0 17.0 0.00 0.00 0.00 44 1013.1
20260508172504 68 234 9.0 15.0 0.00 0.00 0.00 44 1013.3
20260508172003 68 231 9.0 15.0 0.00 0.00 0.00 46 1013.3
20260508171504 68 237 7.0 16.0 0.00 0.00 0.00 45 1013.1
20260508171004 68 251 7.0 16.0 0.00 0.00 0.00 45 1013.4
20260508170503 68 262 13.0 16.0 0.00 0.00 0.00 45 1013.4
20260508165504 68 242 5.0 13.0 0.00 0.00 0.00 47 1013.6
20260508165004 68 215 11.0 13.0 0.00 0.00 0.00 48 1013.7
20260508164504 67 250 7.0 13.0 0.00 0.00 0.00 52 1013.6
20260508164003 67 270 7.0 16.0 0.00 0.00 0.00 49 1013.8
20260508163504 67 247 11.0 16.0 0.00 0.00 0.00 46 1013.7
20260508163004 67 214 7.0 16.0 0.00 0.00 0.00 47 1014.0
20260508162504 66 219 11.0 16.0 0.00 0.00 0.00 46 1014.1
20260508162003 66 243 8.0 16.0 0.00 0.00 0.00 46 1014.1
20260508161504 66 249 11.0 16.0 0.00 0.00 0.00 46 1014.1
20260508161004 66 251 9.0 15.0 0.00 0.00 0.00 49 1014.0
20260508160505 66 239 10.0 14.0 0.00 0.00 0.00 46 1014.3
20260508160004 66 221 10.0 14.0 0.00 0.00 0.00 46 1014.3
20260508155504 65 222 7.0 15.0 0.00 0.00 0.00 47 1014.2
20260508155003 65 231 8.0 15.0 0.00 0.00 0.00 47 1014.3
20260508154504 65 255 7.0 11.0 0.00 0.00 0.00 47 1014.3
20260508154004 65 257 7.0 16.0 0.00 0.00 0.00 48 1014.5
20260508153004 65 240 10.0 14.0 0.00 0.00 0.00 49 1014.7
20260508152504 65 236 5.0 11.0 0.00 0.00 0.00 50 1014.7
20260508152004 64 250 9.0 14.0 0.00 0.00 0.00 50 1014.8
20260508151503 64 258 5.0 14.0 0.00 0.00 0.00 50 1014.7
20260508151004 64 246 8.0 15.0 0.00 0.00 0.00 51 1014.9
20260508150503 63 244 9.0 15.0 0.00 0.00 0.00 51 1014.9
20260508150004 63 231 7.0 15.0 0.00 0.00 0.00 52 1014.9
20260508145504 63 233 8.0 15.0 0.00 0.00 0.00 51 1015.0
20260508145004 63 249 12.0 15.0 0.00 0.00 0.00 52 1015.0
20260508144504 63 232 8.0 13.0 0.00 0.00 0.00 50 1015.0
20260508144004 62 207 8.0 14.0 0.00 0.00 0.00 51 1015.0
20260508143505 62 218 10.0 14.0 0.00 0.00 0.00 53 1015.2
20260508143004 62 251 11.0 15.0 0.00 0.00 0.00 52 1015.2
20260508142504 61 250 8.0 15.0 0.00 0.00 0.00 51 1015.0
20260508142004 61 235 11.0 15.0 0.00 0.00 0.00 51 1015.3
20260508141505 61 234 11.0 13.0 0.00 0.00 0.00 52 1015.1
20260508140504 60 234 5.0 14.0 0.00 0.00 0.00 51 1015.4
20260508140004 60 232 9.0 13.0 0.00 0.00 0.00 52 1015.2
20260508135504 60 231 8.0 11.0 0.00 0.00 0.00 52 1015.1
20260508134504 59 236 11.0 11.0 0.00 0.00 0.00 54 1015.2
20260508134005 59 241 8.0 11.0 0.00 0.00 0.00 54 1015.3
20260508133004 58 224 5.0 9.0 0.00 0.00 0.00 55 1015.2
20260508132504 57 220 3.0 10.0 0.00 0.00 0.00 60 1015.2
20260508132005 56 221 5.0 10.0 0.00 0.00 0.00 56 1015.2
20260508131505 56 223 5.0 10.0 0.00 0.00 0.00 58 1015.2
20260508131004 55 223 5.0 9.0 0.00 0.00 0.00 58 1015.2
20260508130504 55 228 7.0 9.0 0.00 0.00 0.00 63 1015.3
20260508130005 54 223 3.0 7.0 0.00 0.00 0.00 66 1015.1
20260508125504 53 223 4.0 7.0 0.00 0.00 0.00 68 1015.3
20260508125004 52 233 5.0 7.0 0.00 0.00 0.00 67 1015.2
20260508124503 51 228 5.0 7.0 0.00 0.00 0.00 68 1015.3
20260508124005 51 233 4.0 7.0 0.00 0.00 0.00 69 1015.2
20260508123504 50 220 4.0 7.0 0.00 0.00 0.00 71 1015.3
20260508123004 49 203 3.0 7.0 0.00 0.00 0.00 71 1015.1
20260508122504 49 203 3.0 7.0 0.00 0.00 0.00 73 1015.2
20260508121505 47 226 3.0 6.0 0.00 0.00 0.00 74 1014.9
20260508121004 46 220 3.0 5.0 0.00 0.00 0.00 75 1015.2
20260508120504 46 217 3.0 4.0 0.00 0.00 0.00 75 1015.1
20260508120005 46 214 3.0 4.0 0.00 0.00 0.00 75 1015.1
20260508115504 46 210 3.0 4.0 0.00 0.00 0.00 75 1014.9
20260508115004 46 210 2.0 4.0 0.00 0.00 0.00 75 1014.9
20260508114504 46 222 3.0 3.0 0.00 0.00 0.00 75 1014.9
20260508114004 46 213 1.0 3.0 0.00 0.00 0.00 75 1015.0
20260508113504 45 199 2.0 3.0 0.00 0.00 0.00 80 1014.9
20260508113004 45 205 2.0 3.0 0.00 0.00 0.00 80 1014.8
20260508112504 45 195 2.0 4.0 0.00 0.00 0.00 80 1014.6
20260508112005 45 201 2.0 4.0 0.00 0.00 0.00 80 1014.8
20260508111505 45 209 3.0 4.0 0.00 0.00 0.00 81 1014.8
20260508111004 44 207 3.0 3.0 0.00 0.00 0.00 81 1014.6
20260508110503 44 210 1.0 3.0 0.00 0.00 0.00 82 1014.9
20260508110004 44 210 2.0 4.0 0.00 0.00 0.00 84 1014.5
20260508105504 43 207 2.0 4.0 0.00 0.00 0.00 85 1014.6
20260508105004 43 214 3.0 4.0 0.00 0.00 0.00 86 1014.6
20260508104504 42 230 2.0 3.0 0.00 0.00 0.00 86 1014.5
20260508104005 42 245 1.0 1.0 0.00 0.00 0.00 85 1014.4
20260508103504 42 245 0.0 1.0 0.00 0.00 0.00 85 1014.5
20260508103004 42 243 0.0 1.0 0.00 0.00 0.00 84 1014.4
20260508102504 42 251 0.0 3.0 0.00 0.00 0.00 84 1014.5
20260508102005 42 235 1.0 3.0 0.00 0.00 0.00 84 1014.5
20260508100504 41 261 0.0 1.0 0.00 0.00 0.00 85 1014.4
20260508100004 41 261 0.0 1.0 0.00 0.00 0.00 85 1014.3
20260508094505 40 205 1.0 2.0 0.00 0.00 0.00 88 1014.2
20260508094004 40 229 0.0 1.0 0.00 0.00 0.00 88 1014.3
20260508093503 40 201 0.0 1.0 0.00 0.00 0.00 87 1014.3
20260508093004 40 187 0.0 1.0 0.00 0.00 0.00 87 1014.3
20260508092504 40 217 0.0 1.0 0.00 0.00 0.00 87 1014.2
20260508091503 40 0 0.0 0.0 0.00 0.00 0.00 87 1014.4
20260508091005 40 0 0.0 0.0 0.00 0.00 0.00 87 1014.5
20260508090504 40 209 0.0 1.0 0.00 0.00 0.00 86 1014.5
20260508090004 40 212 0.0 1.0 0.00 0.00 0.00 86 1014.3
20260508085503 40 217 1.0 1.0 0.00 0.00 0.00 86 1014.2
20260508085004 40 217 0.0 1.0 0.00 0.00 0.00 86 1014.5
20260508084504 40 217 0.0 1.0 0.00 0.00 0.00 87 1014.4
20260508084004 40 217 0.0 1.0 0.00 0.00 0.00 86 1014.2
20260508083004 40 217 0.0 1.0 0.00 0.00 0.00 86 1014.5
20260508082504 40 217 0.0 1.0 0.00 0.00 0.00 85 1014.3
20260508082004 40 217 0.0 1.0 0.00 0.00 0.00 85 1014.1
20260508081505 40 0 0.0 0.0 0.00 0.00 0.00 85 1014.2
20260508081004 40 0 0.0 0.0 0.00 0.00 0.00 85 1014.2
20260508080504 41 0 0.0 0.0 0.00 0.00 0.00 85 1013.9
20260508080005 41 0 0.0 0.0 0.00 0.00 0.00 85 1014.0
20260508074505 40 0 0.0 0.0 0.00 0.00 0.00 85 1014.1
20260508074006 40 261 0.0 1.0 0.00 0.00 0.00 85 1014.1
20260508073504 41 220 0.0 1.0 0.00 0.00 0.00 85 1014.2
20260508073004 41 212 0.0 1.0 0.00 0.00 0.00 85 1014.1
20260508072503 41 217 0.0 1.0 0.00 0.00 0.00 84 1014.2
20260508072004 41 217 0.0 1.0 0.00 0.00 0.00 84 1014.3
20260508071504 41 217 0.0 1.0 0.00 0.00 0.00 84 1014.1
20260508071005 41 217 0.0 1.0 0.00 0.00 0.00 84 1014.1
20260508070005 41 261 0.0 2.0 0.00 0.00 0.00 85 1014.2
20260508065504 41 261 0.0 2.0 0.00 0.00 0.00 86 1014.3
20260508065004 41 261 0.0 1.0 0.00 0.00 0.00 86 1014.6
20260508064505 41 239 0.0 1.0 0.00 0.00 0.00 86 1014.6
20260508064005 41 253 0.0 1.0 0.00 0.00 0.00 87 1014.5
20260508063505 41 242 0.0 1.0 0.00 0.00 0.00 87 1014.7
20260508063005 41 223 1.0 1.0 0.00 0.00 0.00 87 1014.8
20260508062004 41 245 0.0 1.0 0.00 0.00 0.00 86 1014.7
20260508061504 41 233 0.0 1.0 0.00 0.00 0.00 86 1014.8
20260508061004 41 217 0.0 1.0 0.00 0.00 0.00 86 1014.8
20260508060504 41 0 0.0 0.0 0.00 0.00 0.00 85 1014.7
20260508060006 41 0 0.0 0.0 0.00 0.00 0.00 85 1014.6
20260508055504 41 0 0.0 0.0 0.00 0.00 0.00 85 1014.5
20260508055005 41 0 0.0 0.0 0.00 0.00 0.00 85 1014.6
20260508054504 41 0 0.0 0.0 0.00 0.00 0.00 85 1014.5
20260508054004 41 0 0.0 0.0 0.00 0.00 0.00 85 1014.5
20260508053504 41 0 0.0 0.0 0.00 0.00 0.00 85 1014.7
20260508053003 41 0 0.0 0.0 0.00 0.00 0.00 85 1014.8
20260508052505 42 0 0.0 0.0 0.00 0.00 0.00 85 1014.8
20260508052004 42 217 0.0 1.0 0.00 0.00 0.00 85 1014.6
20260508051503 42 231 0.0 1.0 0.00 0.00 0.00 85 1014.7
20260508051004 42 220 0.0 1.0 0.00 0.00 0.00 85 1014.8
20260508050505 42 217 0.0 1.0 0.00 0.00 0.00 84 1014.8
20260508045504 42 0 0.0 0.0 0.00 0.00 0.00 85 1014.7
20260508045005 42 0 0.0 0.0 0.00 0.00 0.00 85 1014.9
20260508044504 42 0 0.0 0.0 0.00 0.00 0.00 86 1014.6
20260508044005 42 261 0.0 1.0 0.00 0.00 0.00 86 1014.5
20260508043503 42 261 0.0 1.0 0.00 0.00 0.00 86 1014.7
20260508043005 42 261 0.0 1.0 0.00 0.00 0.00 86 1014.5
20260508042505 42 261 0.0 1.0 0.00 0.00 0.00 86 1014.6
20260508042005 42 261 0.0 1.0 0.00 0.00 0.00 86 1014.6
20260508041004 43 261 0.0 1.0 0.00 0.00 0.00 85 1014.8
20260508040504 43 231 0.0 1.0 0.00 0.00 0.00 84 1014.8
20260508040005 43 246 0.0 1.0 0.00 0.00 0.00 84 1014.7
20260508035503 43 261 0.0 1.0 0.00 0.00 0.00 84 1014.8
20260508035004 43 217 0.0 1.0 0.00 0.00 0.00 84 1014.7
20260508034504 43 217 0.0 1.0 0.00 0.00 0.00 84 1014.8
20260508032004 44 0 0.0 0.0 0.00 0.00 0.00 81 1014.8
20260508031504 44 217 0.0 1.0 0.00 0.00 0.00 80 1014.8
20260508031004 44 217 0.0 1.0 0.00 0.00 0.00 79 1014.6
20260508025504 44 270 0.0 1.0 0.00 0.00 0.00 79 1014.8
20260508025004 45 226 0.0 1.0 0.00 0.00 0.00 80 1014.8
20260508024505 45 214 0.0 1.0 0.00 0.00 0.00 78 1014.5
20260508024004 45 213 0.0 1.0 0.00 0.00 0.00 77 1014.7
20260508023504 45 261 0.0 1.0 0.00 0.00 0.00 76 1014.7
20260508022503 46 219 0.0 1.0 0.00 0.00 0.00 73 1014.4
20260508022004 46 217 0.0 1.0 0.00 0.00 0.00 70 1014.6
20260508021505 46 217 0.0 1.0 0.00 0.00 0.00 69 1014.9
20260508021004 46 217 0.0 1.0 0.00 0.00 0.00 70 1014.8
20260508020505 47 0 0.0 0.0 0.00 0.00 0.00 68 1014.8
20260508020004 47 261 0.0 1.0 0.00 0.00 0.00 68 1014.7
20260508015504 47 261 0.0 1.0 0.00 0.00 0.00 67 1014.6
20260508014504 48 224 0.0 1.0 0.00 0.00 0.00 65 1014.6
20260508014004 48 0 0.0 0.0 0.00 0.00 0.00 64 1014.5
20260508013505 49 0 0.0 0.0 0.00 0.00 0.00 62 1014.4
20260508013005 49 0 0.0 0.0 0.00 0.00 0.00 63 1014.7
20260508012504 50 217 0.0 1.0 0.00 0.00 0.00 63 1014.6
20260508012004 50 217 0.0 1.0 0.00 0.00 0.00 63 1014.4
20260508011507 50 0 0.0 0.0 0.00 0.00 0.00 60 1014.4
20260508011004 51 0 0.0 0.0 0.00 0.00 0.00 58 1014.4
20260508010504 51 0 0.0 0.0 0.00 0.00 0.00 57 1014.3
20260508010004 52 0 0.0 0.0 0.00 0.00 0.00 56 1014.2
20260508005504 52 0 0.0 0.0 0.00 0.00 0.00 56 1014.2
20260508005004 53 217 0.0 1.0 0.00 0.00 0.00 55 1014.3
20260508004505 54 239 0.0 1.0 0.00 0.00 0.00 54 1014.5
20260508004005 55 276 1.0 3.0 0.00 0.00 0.00 45 1014.2
20260508003503 55 288 1.0 3.0 0.00 0.00 0.00 44 1014.2
20260508003005 56 291 1.0 3.0 0.00 0.00 0.00 44 1014.2
20260508002504 57 305 1.0 3.0 0.00 0.00 0.00 40 1014.0
20260508002004 57 308 2.0 3.0 0.00 0.00 0.00 39 1014.1
20260508001504 58 313 0.0 3.0 0.00 0.00 0.00 38 1014.1
20260508001004 58 315 1.0 3.0 0.00 0.00 0.00 39 1013.9
20260508000504 58 309 1.0 3.0 0.00 0.00 0.00 40 1013.9
20260508000004 58 312 1.0 3.0 0.00 0.00 0.00 40 1013.9
20260507235504 58 319 1.0 2.0 0.00 0.00 0.00 40 1013.8
20260507234505 59 342 0.0 4.0 0.00 0.00 0.00 40 1013.7
20260507234004 59 329 2.0 4.0 0.00 0.00 0.00 37 1013.8
20260507233504 59 304 0.0 3.0 0.00 0.00 0.00 38 1013.6
20260507233004 59 312 0.0 3.0 0.00 0.00 0.00 40 1013.7
20260507232004 59 345 1.0 3.0 0.00 0.00 0.00 39 1014.0
20260507231004 59 307 1.0 3.0 0.00 0.00 0.00 38 1014.1
20260507230505 59 300 0.0 5.0 0.00 0.00 0.00 38 1013.8
20260507230005 59 308 2.0 6.0 0.00 0.00 0.00 38 1013.8
20260507225504 59 312 5.0 8.0 0.00 0.00 0.00 37 1013.9
20260507225004 59 308 3.0 8.0 0.00 0.00 0.00 36 1013.8
20260507224505 60 293 7.0 8.0 0.00 0.00 0.00 38 1013.8
20260507224004 60 331 3.0 10.0 0.00 0.00 0.00 38 1013.7
20260507223504 60 343 3.0 10.0 0.00 0.00 0.00 36 1013.9
20260507222504 60 319 7.0 11.0 0.00 0.00 0.00 38 1013.8
20260507222004 60 323 6.0 8.0 0.00 0.00 0.00 38 1013.7
20260507221504 60 324 5.0 9.0 0.00 0.00 0.00 39 1014.1
20260507221004 60 325 6.0 10.0 0.00 0.00 0.00 37 1014.0
20260507220004 60 301 8.0 9.0 0.00 0.00 0.00 39 1014.0
20260507215503 60 295 1.0 7.0 0.00 0.00 0.00 40 1013.9
20260507215004 60 321 4.0 8.0 0.00 0.00 0.00 41 1013.8
20260507214504 60 356 5.0 9.0 0.00 0.00 0.00 37 1013.9
20260507214004 60 354 6.0 9.0 0.00 0.00 0.00 38 1013.7
20260507213503 60 342 3.0 8.0 0.00 0.00 0.00 37 1013.5
20260507213004 60 330 6.0 8.0 0.00 0.00 0.00 37 1014.1
20260507212504 60 337 1.0 6.0 0.00 0.00 0.00 39 1013.7
20260507212005 60 321 3.0 8.0 0.00 0.00 0.00 39 1013.8
20260507211503 60 315 5.0 8.0 0.00 0.00 0.00 41 1013.9
20260507211004 60 300 0.0 11.0 0.00 0.00 0.00 38 1013.6
20260507210504 60 297 5.0 11.0 0.00 0.00 0.00 38 1013.5
20260507205504 60 357 4.0 9.0 0.00 0.00 0.00 41 1013.7
20260507205004 61 339 5.0 9.0 0.00 0.00 0.00 38 1013.7
20260507204505 60 329 5.0 9.0 0.00 0.00 0.00 41 1013.7
20260507204004 61 322 7.0 9.0 0.00 0.00 0.00 39 1013.5
20260507203504 61 315 4.0 9.0 0.00 0.00 0.00 40 1013.6
20260507203004 61 323 5.0 8.0 0.00 0.00 0.00 44 1013.5
20260507202504 60 336 6.0 9.0 0.00 0.00 0.00 41 1013.5
20260507200504 60 325 9.0 13.0 0.00 0.00 0.00 44 1013.9
20260507195504 60 348 8.0 11.0 0.00 0.00 0.00 40 1013.7
20260507195004 60 310 4.0 13.0 0.00 0.00 0.00 40 1013.7
20260507194505 60 316 5.0 13.0 0.00 0.00 0.00 41 1013.7
20260507194004 60 351 5.0 9.0 0.00 0.00 0.00 41 1013.8
20260507193504 60 352 5.0 9.0 0.00 0.00 0.00 39 1014.1
20260507193004 59 326 6.0 15.0 0.00 0.00 0.00 41 1013.7
20260507192503 60 310 5.0 15.0 0.00 0.00 0.00 41 1014.0
20260507192004 59 295 4.0 12.0 0.00 0.00 0.00 42 1013.8
20260507191504 59 312 6.0 16.0 0.00 0.00 0.00 38 1013.9
20260507191009 59 306 12.0 16.0 0.00 0.00 0.00 37 1014.2